La Palma > ESTACION METEOROLÓGICA Santo Domingo - Garafia

DATOS ACTUALES Online

Ultima actulizacion 6 minutos

16.6 ºC

Temperatura

80

Humedad (%)

989.5

Presión (mb)

0

Precipitación (mm)

6.3 SE

Viento (Km/h)

DATOS DIARIOS

Temperatura últimas 24 horas (ºC)

Humedad últimas 24 horas (%)

Presión atmosférica últimas 24 horas (mb)

Precipitaciones últimas 23 horas (mm)

Viento últimas 24 horas (Km/h)

Hora Temperatura (°C) ºC Precipitación (mm) mm Presión (mb) mb Humedad (%) % Viento (Km/h) km/h
28 - 23:00 16.6 0 990 75 4.68 SE
29 - 00:00 16.6 0 990 75 7.74 SE
29 - 01:00 17.5 0 990 79 15.66 NE
29 - 02:00 16.9 0 989 81 6.3 NE
29 - 03:00 16.8 0 989 81 4.68 NE
29 - 04:00 16.6 0 988 80 4.68 SE
29 - 05:00 16.4 0 988 75 3.06 SE
29 - 06:00 17 0 989 79 0 NW
29 - 07:00 16.5 0 989 83 0 SE
29 - 08:00 16.9 0 989 80 0 NW
29 - 09:00 17.3 0 990 76 0 NW
29 - 10:00 17.7 0 990 74 7.74 NW
29 - 11:00 18.2 0 990 73 0 NW
29 - 12:00 18.9 0 990 68 4.68 NW
29 - 13:00 19.6 0 989 70 15.66 NW
29 - 14:00 19.9 0 989 72 17.28 W
29 - 15:00 20.2 0 989 66 10.98 W
29 - 16:00 19.9 0 989 71 9.36 W
29 - 17:00 20.1 0 989 70 0 SW
29 - 18:00 19.3 0 989 75 7.74 S
29 - 19:00 18.3 0 989 76 10.98 NW
29 - 20:00 18 0 989 75 3.06 W
29 - 21:00 18.1 0 989 76 0 N
29 - 22:00 17.7 0 989 78 0 NW
29 - 23:00 16.6 0 990 80 6.3 SE
Apalmet utiliza cookies propias y de terceros para mejorar la usabilidad y la experiencia web. Política de cookies.